EW5817 Weather Reports


time (UTC)temp
C
wind
direction
speed
KPH
gust
KPH
rain 1hr
cm
rain 24hr
cm
rain mn
cm
humidity
%
barometer
mb
20260906130239 18 68 6.4 6.4 0.00 0.10 0.00 91 1021.0
20260906125738 17 68 0.0 8.0 0.00 0.10 0.00 91 1021.0
20260906125238 17 113 0.0 8.0 0.00 0.10 0.00 91 1019.0
20260906124738 16 113 0.0 8.0 0.00 0.10 0.00 91 1019.0
20260906123738 15 113 0.0 3.2 0.00 0.10 0.00 91 1019.9
20260906123238 15 68 0.0 3.2 0.00 0.10 0.00 91 1019.9
20260906122738 15 68 0.0 6.4 0.00 0.10 0.00 91 1019.9
20260906121737 15 68 0.0 3.2 0.00 0.10 0.00 91 1019.0
20260906121237 15 113 0.0 1.6 0.00 0.10 0.00 91 1019.0
20260906120737 15 113 0.0 3.2 0.00 0.10 0.00 91 1019.9
20260906120237 15 90 0.0 3.2 0.00 0.10 0.00 91 1019.9
20260906115737 15 90 0.0 3.2 0.00 0.10 0.00 91 1019.9
20260906115236 15 68 0.0 0.0 0.00 0.10 0.00 91 1019.9
20260906114736 15 68 0.0 0.0 0.00 0.10 0.00 91 1019.9
20260906114236 15 68 0.0 0.0 0.00 0.10 0.00 91 1019.9
20260906113736 15 68 0.0 0.0 0.00 0.10 0.00 91 1019.9
20260906113236 15 68 0.0 0.0 0.00 0.10 0.00 91 1019.9
20260906112736 15 68 0.0 0.0 0.00 0.10 0.00 91 1019.9
20260906112235 15 68 0.0 0.0 0.00 0.10 0.00 91 1019.0
20260906111736 15 68 0.0 0.0 0.00 0.10 0.00 91 1019.0
20260906110735 15 68 0.0 0.0 0.00 0.10 0.00 91 1019.0
20260906110235 15 68 0.0 3.2 0.00 0.10 0.00 91 1019.0
20260906105735 15 68 0.0 3.2 0.00 0.10 0.00 91 1019.0
20260906105235 15 68 0.0 0.0 0.00 0.10 0.00 91 1019.0
20260906104735 15 68 0.0 0.0 0.00 0.10 0.00 91 1019.0
20260906104235 15 23 0.0 1.6 0.00 0.10 0.00 91 1019.0
20260906103835 15 23 0.0 1.6 0.00 0.10 0.00 91 1019.0
20260906103234 15 23 0.0 3.2 0.00 0.10 0.00 91 1019.0
20260906102734 15 23 0.0 4.8 0.00 0.10 0.00 91 1019.0
20260906102234 15 23 0.0 4.8 0.00 0.10 0.00 91 1019.0
20260906101734 15 23 0.0 0.0 0.00 0.10 0.00 91 1019.0
20260906100733 15 360 0.0 0.0 0.00 0.10 0.00 91 1019.0
20260906100233 15 23 0.0 0.0 0.00 0.10 0.00 91 1019.0
20260906095733 15 338 0.0 0.0 0.00 0.10 0.00 91 1019.0
20260906095233 15 360 0.0 0.0 0.00 0.10 0.00 91 1019.0
20260906094733 15 338 0.0 0.0 0.00 0.10 0.00 91 1019.0
20260906094232 15 90 0.0 0.0 0.00 0.10 0.00 91 1019.0
20260906093732 15 90 0.0 8.0 0.00 0.10 0.00 91 1019.0
20260906092732 15 90 0.0 3.2 0.00 0.10 0.00 91 1019.0
20260906092232 15 90 0.0 3.2 0.00 0.10 0.00 91 1019.0
20260906091232 15 113 0.0 0.0 0.00 0.10 0.00 91 1019.0
20260906090731 15 68 0.0 0.0 0.00 0.10 0.00 91 1019.0
20260906090232 15 68 0.0 0.0 0.00 0.10 0.00 91 1019.0
20260906085731 15 68 0.0 0.0 0.00 0.10 0.00 91 1019.0
20260906085231 15 68 0.0 0.0 0.00 0.10 0.00 91 1019.0
20260906084731 15 68 0.0 0.0 0.00 0.10 0.00 91 1019.0
20260906083732 16 68 0.0 0.0 0.00 0.10 0.00 91 1019.0
20260906082731 16 68 0.0 0.0 0.00 0.10 0.00 91 1019.0
20260906082230 16 68 0.0 0.0 0.00 0.10 0.00 91 1017.9
20260906081730 16 68 0.0 0.0 0.00 0.10 0.00 91 1017.9
20260906081300 16 68 0.0 0.0 0.00 0.10 0.00 91 1017.9
20260906080730 16 68 0.0 0.0 0.00 0.10 0.00 91 1017.9
20260906075730 16 68 0.0 0.0 0.00 0.10 0.00 91 1017.9
20260906074730 16 68 0.0 0.0 0.00 0.10 0.00 91 1017.9
20260906074229 16 68 0.0 0.0 0.00 0.10 0.00 91 1017.9
20260906073730 16 68 0.0 0.0 0.00 0.10 0.00 91 1017.9
20260906073259 16 68 0.0 0.0 0.00 0.10 0.00 91 1017.9
20260906072729 16 68 0.0 0.0 0.00 0.10 0.00 91 1017.9
20260906072228 16 68 0.0 1.6 0.00 0.10 0.00 91 1017.9
20260906071729 17 68 0.0 1.6 0.00 0.10 0.00 91 1017.9
20260906071229 17 90 0.0 3.2 0.00 0.10 0.00 91 1017.9
20260906070728 17 90 0.0 4.8 0.00 0.10 0.00 91 1017.0
20260906070228 17 90 0.0 4.8 0.00 0.10 0.00 91 1017.0
20260906065728 17 90 0.0 3.2 0.00 0.10 0.00 91 1017.0
20260906065228 17 113 0.0 0.0 0.00 0.10 0.00 91 1017.9
20260906064758 17 90 0.0 3.2 0.00 0.10 0.00 91 1017.9
20260906064227 17 113 0.0 4.8 0.00 0.10 0.00 91 1017.9
20260906063757 17 68 0.0 4.8 0.00 0.10 0.00 91 1017.9
20260906063227 17 23 0.0 0.0 0.00 0.10 0.00 91 1017.9
20260906062727 17 45 0.0 0.0 0.00 0.10 0.00 91 1017.9
20260906062227 17 23 0.0 0.0 0.00 0.10 0.00 91 1017.9
20260906061727 17 23 0.0 0.0 0.00 0.10 0.00 91 1017.9
20260906061226 17 360 0.0 0.0 0.00 0.10 0.00 91 1017.9
20260906060726 17 23 0.0 6.4 0.00 0.10 0.00 91 1017.9
20260906060227 17 23 0.0 6.4 0.00 0.10 0.00 91 1017.9
20260906055726 17 23 0.0 0.0 0.00 0.10 0.00 91 1017.9
20260906055226 17 23 0.0 3.2 0.00 0.10 0.00 91 1017.9
20260906054726 17 68 0.0 3.2 0.00 0.10 0.00 91 1017.9
20260906054226 17 68 0.0 0.0 0.00 0.10 0.00 91 1017.9
20260906053725 18 23 0.0 0.0 0.00 0.10 0.00 91 1017.0
20260906053226 18 23 0.0 0.0 0.00 0.10 0.00 91 1017.0
20260906052725 18 23 0.0 0.0 0.00 0.10 0.00 91 1017.0
20260906052225 18 23 0.0 3.2 0.00 0.10 0.00 91 1017.0
20260906050725 18 113 0.0 0.0 0.00 0.10 0.00 91 1017.0
20260906050224 18 113 0.0 3.2 0.00 0.10 0.00 91 1017.0
20260906045254 18 113 0.0 6.4 0.00 0.10 0.00 91 1017.9
20260906044724 18 113 4.8 6.4 0.00 0.10 0.00 91 1017.9
20260906044224 18 113 0.0 6.4 0.00 0.10 0.00 91 1017.9
20260906043724 18 45 0.0 0.0 0.00 0.10 0.00 91 1017.9
20260906043224 18 45 0.0 0.0 0.00 0.10 0.00 91 1017.9
20260906042723 19 68 0.0 0.0 0.00 0.10 0.00 91 1017.9
20260906041723 19 68 0.0 0.0 0.00 0.10 0.00 91 1017.9
20260906041223 19 45 0.0 3.2 0.00 0.10 0.00 91 1017.9
20260906040723 19 68 0.0 3.2 0.00 0.10 0.00 91 1017.9
20260906040223 20 68 0.0 3.2 0.00 0.10 0.00 91 1017.9
20260906035723 20 45 1.6 9.7 0.00 0.10 0.00 91 1017.9
20260906035252 20 68 0.0 9.7 0.00 0.10 0.10 91 1017.0
20260906034723 20 158 0.0 3.2 0.00 0.10 0.10 91 1017.0
20260906034223 20 360 0.0 0.0 0.00 0.10 0.10 91 1017.0
20260906033722 20 360 0.0 0.0 0.00 0.10 0.10 91 1017.0
20260906033222 20 338 0.0 4.8 0.00 0.10 0.10 91 1017.0
20260906032722 20 338 0.0 4.8 0.00 0.10 0.10 91 1017.0
20260906032322 20 338 0.0 0.0 0.00 0.10 0.10 91 1017.0
20260906031721 20 338 0.0 0.0 0.00 0.10 0.10 91 1017.0
20260906031221 20 338 0.0 0.0 0.00 0.10 0.10 91 1017.0
20260906030721 20 338 0.0 0.0 0.00 0.10 0.10 91 1017.0
20260906025721 21 338 0.0 0.0 0.00 0.10 0.10 91 1017.0
20260906024721 21 338 0.0 0.0 0.00 0.10 0.10 91 1017.0
20260906023220 21 338 0.0 0.0 0.00 0.10 0.10 91 1017.0
20260906022220 21 338 0.0 0.0 0.00 0.10 0.10 91 1016.0
20260906021719 21 338 0.0 0.0 0.00 0.10 0.10 91 1016.0
20260906021219 21 338 0.0 0.0 0.00 0.10 0.10 91 1016.0
20260906020719 21 338 0.0 0.0 0.00 0.10 0.10 91 1016.0
20260906015249 21 338 0.0 0.0 0.00 0.10 0.10 91 1016.0
20260906014749 21 338 0.0 0.0 0.00 0.10 0.10 91 1016.0
20260906014249 21 338 0.0 0.0 0.00 0.10 0.10 91 1016.0
20260906013748 22 338 0.0 0.0 0.00 0.10 0.10 90 1016.0
20260906013218 22 338 0.0 0.0 0.00 0.10 0.10 90 1016.0
20260906012748 22 338 0.0 0.0 0.00 0.10 0.10 90 1016.0
20260906011748 22 338 0.0 1.6 0.00 0.10 0.10 89 1015.0
20260906010747 22 338 0.0 0.0 0.00 0.10 0.10 88 1015.0
20260906005747 22 315 0.0 0.0 0.00 0.10 0.10 88 1015.0
20260906005247 22 338 0.0 0.0 0.00 0.10 0.10 88 1016.0
20260906004747 22 338 0.0 0.0 0.00 0.10 0.10 87 1016.0
20260906004247 22 338 0.0 0.0 0.00 0.10 0.10 87 1016.0
20260906003246 23 315 0.0 0.0 0.00 0.10 0.10 87 1016.0
20260906002747 23 315 0.0 0.0 0.00 0.10 0.10 87 1016.0
20260906002316 23 315 0.0 0.0 0.00 0.10 0.10 87 1016.0
20260906001747 23 315 0.0 0.0 0.00 0.10 0.10 86 1016.0
20260906001246 23 315 0.0 3.2 0.00 0.10 0.10 86 1016.0
20260906000746 23 315 0.0 3.2 0.00 0.10 0.10 85 1016.0
20260906000246 23 315 0.0 0.0 0.00 0.10 0.10 85 1016.0
20260905235745 23 315 0.0 0.0 0.00 0.10 0.10 84 1016.0
20260905235245 23 315 0.0 0.0 0.00 0.10 0.10 83 1016.0
20260905234745 24 315 0.0 0.0 0.00 0.10 0.10 83 1016.0
20260905233745 24 315 0.0 9.7 0.00 0.10 0.10 82 1016.0
20260905233245 25 360 0.0 4.8 0.00 0.10 0.10 82 1016.0
20260905232745 25 338 0.0 9.7 0.00 0.10 0.10 81 1016.0
20260905231744 25 338 0.0 14.5 0.00 0.10 0.10 80 1016.0
20260905231244 25 338 12.9 14.5 0.00 0.10 0.10 80 1016.0
20260905225744 25 338 0.0 8.0 0.00 0.10 0.10 80 1016.0
20260905225243 25 23 0.0 11.3 0.00 0.10 0.10 80 1016.0
20260905224743 25 338 4.8 11.3 0.00 0.10 0.10 78 1016.0
20260905223844 25 293 0.0 16.1 0.00 0.10 0.10 77 1016.0
20260905223243 26 293 6.4 17.7 0.00 0.10 0.10 76 1016.0
20260905222743 26 338 0.0 19.3 0.00 0.10 0.10 74 1016.0
20260905222312 26 315 0.0 19.3 0.00 0.10 0.10 74 1016.0
20260905221743 26 270 8.0 17.7 0.00 0.10 0.10 73 1016.0
20260905220742 27 338 9.7 12.9 0.00 0.10 0.10 71 1015.0
20260905220243 27 23 3.2 8.0 0.00 0.10 0.10 73 1015.0
20260905215742 27 293 0.0 8.0 0.00 0.10 0.10 74 1015.0
20260905215242 27 293 0.0 6.4 0.00 0.10 0.10 74 1015.0
20260905214741 27 270 0.0 11.3 0.00 0.10 0.10 74 1015.0
20260905214242 26 158 1.6 11.3 0.00 0.10 0.10 74 1015.0
20260905212742 26 90 4.8 9.7 0.00 0.10 0.10 75 1015.0
20260905211741 26 113 0.0 8.0 0.00 0.10 0.10 77 1016.0
20260905211241 26 203 0.0 8.0 0.00 0.10 0.10 79 1016.0
20260905210740 26 68 0.0 9.7 0.00 0.10 0.10 80 1015.0
20260905210241 26 360 0.0 9.7 0.00 0.10 0.10 82 1015.0
20260905205740 26 23 0.0 9.7 0.00 0.10 0.10 83 1015.0
20260905204239 25 360 0.0 8.0 0.00 0.10 0.10 87 1015.0
20260905203739 25 23 3.2 3.2 0.00 0.10 0.10 88 1015.0
20260905202740 24 180 0.0 8.0 0.00 0.10 0.10 90 1015.0
20260905202240 24 23 3.2 6.4 0.00 0.10 0.10 91 1016.0
20260905201739 24 68 0.0 12.9 0.00 0.10 0.10 91 1016.0
20260905201239 23 113 0.0 12.9 0.00 0.10 0.10 91 1016.0
20260905200238 23 338 0.0 1.6 0.00 0.10 0.10 91 1016.0
20260905195738 23 360 0.0 1.6 0.00 0.10 0.10 91 1016.0
20260905195308 23 360 0.0 6.4 0.00 0.10 0.10 91 1016.0
20260905194738 22 113 0.0 8.0 0.00 0.10 0.10 91 1016.0
20260905194239 22 135 3.2 9.7 0.00 0.10 0.10 91 1016.0
20260905193738 22 23 0.0 9.7 0.00 0.10 0.10 91 1016.0
20260905193237 22 90 4.8 8.0 0.00 0.10 0.10 91 1016.0
20260905192737 22 338 0.0 6.4 0.00 0.10 0.10 91 1016.0
20260905192238 22 113 0.0 6.4 0.00 0.10 0.10 91 1016.0
20260905191737 22 68 0.0 6.4 0.00 0.10 0.10 91 1016.0
20260905191237 22 68 0.0 9.7 0.00 0.10 0.10 91 1016.0
20260905190737 22 113 0.0 9.7 0.00 0.10 0.10 91 1016.0
20260905190237 22 68 8.0 9.7 0.00 0.10 0.10 91 1016.0
20260905185237 22 248 0.0 9.7 0.00 0.10 0.10 91 1016.0
20260905184736 22 338 8.0 9.7 0.10 0.10 0.10 91 1016.0
20260905183736 21 23 3.2 4.8 0.10 0.10 0.10 91 1016.0
20260905183236 21 360 0.0 3.2 0.10 0.10 0.10 91 1016.0
20260905182735 21 90 3.2 3.2 0.10 0.10 0.10 91 1016.0
20260905182236 21 203 0.0 0.0 0.10 0.10 0.10 91 1016.0
20260905181736 21 68 0.0 6.4 0.10 0.10 0.10 91 1016.0
20260905180735 21 360 0.0 6.4 0.10 0.10 0.10 91 1016.0
20260905175735 21 360 6.4 6.4 0.10 0.10 0.10 91 1016.0
20260905175235 21 360 0.0 3.2 0.10 0.10 0.10 91 1015.0
20260905174734 21 68 0.0 3.2 0.00 0.00 0.00 91 1015.0
20260905174234 21 113 0.0 6.4 0.00 0.00 0.00 91 1015.0
20260905173734 21 23 0.0 6.4 0.00 0.00 0.00 91 1016.0
20260905173234 21 180 0.0 6.4 0.00 0.00 0.00 91 1016.0
20260905172734 21 338 0.0 8.0 0.00 0.00 0.00 91 1016.0
20260905172235 21 360 0.0 8.0 0.00 0.00 0.00 91 1016.0
20260905171734 21 23 3.2 8.0 0.00 0.00 0.00 91 1016.0
20260905171234 21 338 0.0 8.0 0.00 0.00 0.00 91 1016.0
20260905170734 21 338 0.0 8.0 0.00 0.00 0.00 91 1015.0
20260905170233 21 113 6.4 8.0 0.00 0.00 0.00 91 1015.0
20260905165733 21 338 4.8 4.8 0.00 0.00 0.00 91 1015.0
20260905165233 21 90 0.0 6.4 0.00 0.00 0.00 91 1016.0
20260905164733 21 360 0.0 6.4 0.00 0.00 0.00 91 1016.0
20260905164233 21 23 0.0 3.2 0.00 0.00 0.00 91 1016.0
20260905163232 21 23 0.0 8.0 0.00 0.00 0.00 91 1016.0
20260905162732 21 23 0.0 6.4 0.00 0.00 0.00 91 1016.0
20260905161232 20 68 0.0 8.0 0.00 0.00 0.00 91 1015.0
20260905160231 20 113 0.0 11.3 0.00 0.00 0.00 91 1017.0
20260905155731 20 68 0.0 4.8 0.00 0.00 0.00 91 1017.0
20260905155231 20 45 0.0 6.4 0.00 0.00 0.00 91 1016.0
20260905154732 20 90 0.0 6.4 0.00 0.00 0.00 91 1016.0
20260905154232 20 225 0.0 6.4 0.00 0.00 0.00 91 1016.0
20260905153731 21 338 0.0 6.4 0.00 0.00 0.00 91 1016.0
20260905153231 21 113 0.0 16.1 0.00 0.00 0.00 91 1016.0
20260905152730 21 68 0.0 16.1 0.00 0.00 0.00 91 1016.0
20260905152230 21 293 14.5 16.1 0.00 0.10 0.00 91 1016.0
20260905151230 21 293 0.0 9.7 0.00 0.10 0.00 91 1016.0
20260905150730 20 360 0.0 11.3 0.00 0.10 0.00 91 1016.0
20260905150229 20 113 8.0 11.3 0.00 0.10 0.00 91 1016.0
20260905145729 20 90 1.6 14.5 0.00 0.10 0.00 91 1016.0
20260905145229 20 68 3.2 14.5 0.00 0.23 0.00 91 1016.0
20260905144730 20 90 0.0 0.0 0.00 0.23 0.00 91 1016.0
20260905144229 20 113 0.0 0.0 0.00 0.23 0.00 91 1016.0
20260905143229 20 68 0.0 9.7 0.00 0.23 0.00 91 1016.0
20260905142729 21 113 0.0 9.7 0.00 0.23 0.00 91 1016.0
20260905142259 21 45 0.0 9.7 0.00 0.23 0.00 90 1015.0
20260905141758 21 113 0.0 9.7 0.00 0.23 0.00 89 1015.0
20260905141228 21 68 0.0 8.0 0.00 0.23 0.00 90 1015.0
20260905140728 21 338 0.0 11.3 0.00 0.23 0.00 90 1015.0
20260905140228 21 113 6.4 16.1 0.00 0.33 0.00 90 1015.0
20260905135728 21 113 3.2 16.1 0.00 0.33 0.00 91 1015.0
20260905135229 21 113 0.0 8.0 0.00 0.33 0.00 91 1015.0
20260905134728 21 338 0.0 9.7 0.00 0.33 0.00 91 1015.0
20260905134227 21 180 0.0 9.7 0.00 0.33 0.00 91 1015.0
20260905133727 21 203 6.4 9.7 0.00 0.33 0.00 91 1016.0
20260905133227 21 248 1.6 9.7 0.00 0.43 0.00 91 1016.0
20260905132726 21 113 6.4 9.7 0.00 0.43 0.00 91 1016.0
20260905132227 21 360 0.0 0.0 0.00 0.43 0.00 91 1015.0
20260905131226 21 360 0.0 9.7 0.00 0.43 0.00 91 1015.0
20260905130726 21 158 0.0 12.9 0.00 0.43 0.00 91 1015.0